Time,TemperatureF,DewpointF,PressureIn,WindDirection,WindDirectionDegrees,WindSpeedMPH,WindSpeedGustMPH,Humidity,HourlyPrecipIn,Conditions,Clouds,dailyrainin,SoftwareType,DateUTC
2013-03-22 00:00:00,27.7,25.2,29.74,WNW,283,1.1,1.1,90,0.00,,,0.00,WeatherDisplay:10.37,2013-03-22 04:00:00,
2013-03-22 00:01:00,27.7,25.2,29.74,West,280,3.0,3.0,90,0.00,,,0.00,WeatherDisplay:10.37,2013-03-22 04:01:00,
2013-03-22 00:02:00,27.7,25.2,29.74,West,260,3.5,3.5,90,0.00,,,0.00,WeatherDisplay:10.37,2013-03-22 04:02:00,
2013-03-22 00:03:00,27.7,25.2,29.74,WNW,302,4.0,4.0,90,0.00,CLR,,0.00,WeatherDisplay:10.37,2013-03-22 04:03:00,
2013-03-22 00:08:00,27.7,25.2,29.74,WNW,298,3.5,3.5,90,0.00,,,0.00,WeatherDisplay:10.37,2013-03-22 04:08:00,
2013-03-22 00:13:00,27.7,25.2,29.74,WNW,303,1.1,1.1,90,0.00,,,0.00,WeatherDisplay:10.37,2013-03-22 04:13:00,
2013-03-22 00:18:00,27.7,25.4,29.74,WNW,289,3.5,3.5,91,0.00,,,0.00,WeatherDisplay:10.37,2013-03-22 04:18:00,
2013-03-22 00:23:00,27.6,25.3,29.74,West,275,3.5,3.5,91,0.00,,,0.00,WeatherDisplay:10.37,2013-03-22 04:23:00,
2013-03-22 00:28:00,27.5,25.2,29.74,WSW,255,4.0,4.0,91,0.00,,,0.00,WeatherDisplay:10.37,2013-03-22 04:28:00,
2013-03-22 00:33:00,27.3,25.0,29.74,West,264,4.6,4.6,91,0.00,,,0.00,WeatherDisplay:10.37,2013-03-22 04:33:00,
2013-03-22 00:38:00,27.3,25.0,29.74,WNW,283,3.5,3.5,91,0.00,,,0.00,WeatherDisplay:10.37,2013-03-22 04:38:00,
2013-03-22 00:43:00,27.1,24.8,29.74,WNW,298,1.1,1.1,91,0.00,,,0.00,WeatherDisplay:10.37,2013-03-22 04:43:00,
2013-03-22 00:48:00,27.0,24.7,29.74,WNW,287,3.5,3.5,91,0.00,,,0.00,WeatherDisplay:10.37,2013-03-22 04:48:00,
2013-03-22 00:53:00,27.1,24.6,29.74,WNW,298,4.6,4.6,90,0.00,,,0.00,WeatherDisplay:10.37,2013-03-22 04:53:00,
2013-03-22 00:58:00,27.0,24.5,29.74,WSW,256,5.8,5.8,90,0.00,,,0.00,WeatherDisplay:10.37,2013-03-22 04:58:00,
2013-03-22 01:03:00,27.1,24.3,29.74,NNW,336,3.5,3.5,89,0.00,,,0.00,WeatherDisplay:10.37,2013-03-22 05:03:00,
2013-03-22 01:08:00,27.0,23.9,29.74,WSW,243,2.3,2.3,88,0.00,,,0.00,WeatherDisplay:10.37,2013-03-22 05:08:00,
2013-03-22 01:13:00,26.9,23.8,29.74,SSW,204,1.1,1.1,88,0.00,,,0.00,WeatherDisplay:10.37,2013-03-22 05:13:00,
2013-03-22 01:18:00,27.0,23.6,29.74,West,277,3.5,3.5,87,0.00,,,0.00,WeatherDisplay:10.37,2013-03-22 05:18:00,
2013-03-22 01:23:00,27.0,23.6,29.74,WNW,283,2.3,2.3,87,0.00,,,0.00,WeatherDisplay:10.37,2013-03-22 05:23:00,
2013-03-22 01:28:00,27.1,23.7,29.74,NNW,329,1.0,0.0,87,0.00,,,0.00,WeatherDisplay:10.37,2013-03-22 05:28:00,
2013-03-22 01:33:00,27.2,23.8,29.74,West,270,0.0,0.0,87,0.00,,,0.00,WeatherDisplay:10.37,2013-03-22 05:33:00,
2013-03-22 01:38:00,27.1,23.7,29.74,WSW,238,3.5,3.5,87,0.00,,,0.00,WeatherDisplay:10.37,2013-03-22 05:38:00,
2013-03-22 01:43:00,27.1,24.0,29.74,WNW,299,2.3,2.3,88,0.00,,,0.00,WeatherDisplay:10.37,2013-03-22 05:43:00,
2013-03-22 01:48:00,26.9,24.4,29.74,WNW,284,4.0,4.0,90,0.00,,,0.00,WeatherDisplay:10.37,2013-03-22 05:48:00,
2013-03-22 01:53:00,26.7,24.2,29.74,WNW,285,3.5,3.5,90,0.00,,,0.00,WeatherDisplay:10.37,2013-03-22 05:53:00,
2013-03-22 01:58:00,26.6,24.3,29.75,West,274,3.0,3.0,91,0.00,,,0.00,WeatherDisplay:10.37,2013-03-22 05:58:00,
2013-03-22 02:03:00,26.6,24.3,29.75,West,271,1.1,1.1,91,0.00,,,0.00,WeatherDisplay:10.37,2013-03-22 06:03:00,
2013-03-22 02:08:00,26.6,24.3,29.75,WSW,239,2.3,2.3,91,0.00,,,0.00,WeatherDisplay:10.37,2013-03-22 06:08:00,
2013-03-22 02:13:00,26.6,24.3,29.75,WNW,284,3.5,3.5,91,0.00,,,0.00,WeatherDisplay:10.37,2013-03-22 06:13:00,
2013-03-22 02:18:00,26.7,24.4,29.75,West,263,2.3,2.3,91,0.00,,,0.00,WeatherDisplay:10.37,2013-03-22 06:18:00,
2013-03-22 02:23:00,26.7,24.4,29.74,WSW,255,3.5,3.5,91,0.00,,,0.00,WeatherDisplay:10.37,2013-03-22 06:23:00,
2013-03-22 02:28:00,26.7,24.4,29.74,North,349,3.5,3.5,91,0.00,,,0.00,WeatherDisplay:10.37,2013-03-22 06:28:00,
2013-03-22 02:33:00,26.7,24.4,29.74,West,270,3.5,3.5,91,0.00,,,0.00,WeatherDisplay:10.37,2013-03-22 06:33:00,
2013-03-22 02:38:00,26.7,24.4,29.74,WSW,252,1.1,0.0,91,0.00,,,0.00,WeatherDisplay:10.37,2013-03-22 06:38:00,
2013-03-22 02:44:00,26.7,24.4,29.74,West,278,1.1,1.1,91,0.00,,,0.00,WeatherDisplay:10.37,2013-03-22 06:44:00,
2013-03-22 02:49:00,26.7,24.4,29.74,SW,229,1.1,0.0,91,0.00,,,0.00,WeatherDisplay:10.37,2013-03-22 06:49:00,
2013-03-22 02:54:00,26.7,24.4,29.74,WNW,290,0.0,0.0,91,0.00,,,0.00,WeatherDisplay:10.37,2013-03-22 06:54:00,
2013-03-22 02:59:00,26.7,24.4,29.74,WNW,302,3.5,0.0,91,0.00,,,0.00,WeatherDisplay:10.37,2013-03-22 06:59:00,
2013-03-22 03:04:00,26.7,24.2,29.74,WNW,299,0.0,0.0,90,0.00,,,0.00,WeatherDisplay:10.37,2013-03-22 07:04:00,
2013-03-22 03:09:00,26.7,24.4,29.74,West,269,2.3,2.3,91,0.00,,,0.00,WeatherDisplay:10.37,2013-03-22 07:09:00,
2013-03-22 03:14:00,26.7,24.4,29.74,West,260,3.5,3.5,91,0.00,,,0.00,WeatherDisplay:10.37,2013-03-22 07:14:00,
2013-03-22 03:19:00,26.7,24.4,29.73,WSW,257,1.1,1.1,91,0.00,,,0.00,WeatherDisplay:10.37,2013-03-22 07:19:00,
2013-03-22 03:24:00,26.6,24.3,29.74,WNW,295,2.3,2.3,91,0.00,,,0.00,WeatherDisplay:10.37,2013-03-22 07:24:00,
2013-03-22 03:29:00,26.5,24.2,29.74,WSW,255,3.5,3.5,91,0.00,,,0.00,WeatherDisplay:10.37,2013-03-22 07:29:00,
2013-03-22 03:34:00,26.4,24.1,29.73,WSW,257,3.5,3.5,91,0.00,,,0.00,WeatherDisplay:10.37,2013-03-22 07:34:00,
2013-03-22 03:39:00,26.2,23.9,29.73,WSW,250,2.3,2.3,91,0.00,,,0.00,WeatherDisplay:10.37,2013-03-22 07:39:00,
2013-03-22 03:44:00,26.1,23.8,29.73,WNW,284,8.1,8.1,91,0.00,,,0.00,WeatherDisplay:10.37,2013-03-22 07:44:00,
2013-03-22 03:49:00,26.1,23.6,29.74,West,260,3.5,3.5,90,0.00,,,0.00,WeatherDisplay:10.37,2013-03-22 07:49:00,
2013-03-22 03:54:00,26.0,23.7,29.73,WNW,282,1.1,1.1,91,0.00,,,0.00,WeatherDisplay:10.37,2013-03-22 07:54:00,
2013-03-22 03:59:00,25.9,23.6,29.73,WSW,240,5.8,5.8,91,0.00,,,0.00,WeatherDisplay:10.37,2013-03-22 07:59:00,
2013-03-22 04:04:00,25.8,23.3,29.74,WNW,285,3.5,3.5,90,0.00,,,0.00,WeatherDisplay:10.37,2013-03-22 08:04:00,
2013-03-22 04:09:00,25.7,23.2,29.74,West,267,1.1,1.1,90,0.00,,,0.00,WeatherDisplay:10.37,2013-03-22 08:09:00,
2013-03-22 04:14:00,25.6,23.1,29.74,WSW,246,3.5,3.5,90,0.00,,,0.00,WeatherDisplay:10.37,2013-03-22 08:14:00,
2013-03-22 04:19:00,25.5,23.0,29.74,West,276,2.3,2.3,90,0.00,,,0.00,WeatherDisplay:10.37,2013-03-22 08:19:00,
2013-03-22 04:24:00,25.5,23.0,29.74,WNW,297,10.4,10.4,90,0.00,,,0.00,WeatherDisplay:10.37,2013-03-22 08:24:00,
2013-03-22 04:29:00,25.4,22.9,29.74,NW,311,4.0,4.0,90,0.00,,,0.00,WeatherDisplay:10.37,2013-03-22 08:29:00,
2013-03-22 04:34:00,25.3,22.8,29.74,WSW,258,2.3,2.3,90,0.00,,,0.00,WeatherDisplay:10.37,2013-03-22 08:34:00,
2013-03-22 04:39:00,25.3,22.8,29.74,West,276,3.5,3.5,90,0.00,,,0.00,WeatherDisplay:10.37,2013-03-22 08:39:00,
2013-03-22 04:44:00,25.2,22.7,29.74,West,269,2.3,2.3,90,0.00,,,0.00,WeatherDisplay:10.37,2013-03-22 08:44:00,
2013-03-22 04:49:00,25.3,22.8,29.74,SSW,195,2.3,2.3,90,0.00,,,0.00,WeatherDisplay:10.37,2013-03-22 08:49:00,
2013-03-22 04:54:00,25.3,22.8,29.74,NW,304,2.3,2.3,90,0.00,,,0.00,WeatherDisplay:10.37,2013-03-22 08:54:00,
2013-03-22 04:59:00,25.3,22.8,29.74,WNW,294,1.1,0.0,90,0.00,,,0.00,WeatherDisplay:10.37,2013-03-22 08:59:00,
2013-03-22 05:04:00,25.2,22.7,29.74,WSW,253,3.5,3.5,90,0.00,,,0.00,WeatherDisplay:10.37,2013-03-22 09:04:00,
2013-03-22 05:09:00,25.3,22.8,29.74,WNW,298,4.0,4.0,90,0.00,,,0.00,WeatherDisplay:10.37,2013-03-22 09:09:00,
2013-03-22 05:14:00,25.3,22.8,29.74,WSW,243,0.0,0.0,90,0.00,,,0.00,WeatherDisplay:10.37,2013-03-22 09:14:00,
2013-03-22 05:19:00,25.1,22.6,29.74,SSE,159,1.1,1.8,90,0.00,,,0.00,WeatherDisplay:10.37,2013-03-22 09:19:00,
2013-03-22 05:24:00,25.1,22.6,29.74,WNW,290,1.1,1.1,90,0.00,,,0.00,WeatherDisplay:10.37,2013-03-22 09:24:00,
2013-03-22 05:29:00,25.0,22.5,29.74,South,173,1.1,1.1,90,0.00,,,0.00,WeatherDisplay:10.37,2013-03-22 09:29:00,
2013-03-22 05:34:00,25.1,22.6,29.74,West,270,2.3,2.3,90,0.00,,,0.00,WeatherDisplay:10.37,2013-03-22 09:34:00,
2013-03-22 05:39:00,25.1,22.6,29.74,ESE,121,3.5,3.5,90,0.00,,,0.00,WeatherDisplay:10.37,2013-03-22 09:39:00,
2013-03-22 05:44:00,25.1,22.6,29.74,West,273,5.0,5.0,90,0.00,,,0.00,WeatherDisplay:10.37,2013-03-22 09:44:00,
2013-03-22 05:49:00,25.1,22.6,29.74,WSW,257,2.3,2.3,90,0.00,,,0.00,WeatherDisplay:10.37,2013-03-22 09:49:00,
2013-03-22 05:54:00,25.2,22.7,29.74,WNW,283,0.0,0.0,90,0.00,,,0.00,WeatherDisplay:10.37,2013-03-22 09:54:00,
2013-03-22 05:59:00,25.3,22.8,29.74,NE,49,1.1,0.0,90,0.00,,,0.00,WeatherDisplay:10.37,2013-03-22 09:59:00,
2013-03-22 06:04:00,25.3,22.5,29.74,SW,235,1.1,0.0,89,0.00,,,0.00,WeatherDisplay:10.37,2013-03-22 10:04:00,
2013-03-22 06:09:00,25.3,22.5,29.74,West,275,0.0,0.0,89,0.00,,,0.00,WeatherDisplay:10.37,2013-03-22 10:09:00,
2013-03-22 06:14:00,25.3,22.5,29.75,WNW,295,4.6,4.6,89,0.00,,,0.00,WeatherDisplay:10.37,2013-03-22 10:14:00,
2013-03-22 06:19:00,25.4,22.6,29.75,WNW,293,1.0,1.0,89,0.00,,,0.00,WeatherDisplay:10.37,2013-03-22 10:19:00,
2013-03-22 06:24:00,25.5,22.7,29.74,WSW,238,3.5,3.5,89,0.00,,,0.00,WeatherDisplay:10.37,2013-03-22 10:24:00,
2013-03-22 06:29:00,25.5,22.7,29.74,WNW,287,3.5,3.5,89,0.00,,,0.00,WeatherDisplay:10.37,2013-03-22 10:29:00,
2013-03-22 06:34:00,25.5,22.7,29.75,WNW,293,5.8,5.8,89,0.00,,,0.00,WeatherDisplay:10.37,2013-03-22 10:34:00,
2013-03-22 06:39:00,25.5,22.7,29.75,WSW,248,3.5,3.5,89,0.00,,,0.00,WeatherDisplay:10.37,2013-03-22 10:39:00,
2013-03-22 06:44:00,25.6,22.8,29.75,WNW,290,0.0,0.0,89,0.00,,,0.00,WeatherDisplay:10.37,2013-03-22 10:44:00,
2013-03-22 06:49:00,25.7,22.9,29.75,WSW,243,3.5,3.5,89,0.00,,,0.00,WeatherDisplay:10.37,2013-03-22 10:49:00,
2013-03-22 06:54:00,25.7,22.9,29.75,NNW,345,5.8,5.8,89,0.00,,,0.00,WeatherDisplay:10.37,2013-03-22 10:54:00,
2013-03-22 07:00:00,25.8,23.0,29.75,WNW,292,3.5,0.0,89,0.00,,,0.00,WeatherDisplay:10.37,2013-03-22 11:00:00,
2013-03-22 07:05:00,25.8,23.0,29.75,WNW,288,1.1,1.1,89,0.00,,,0.00,WeatherDisplay:10.37,2013-03-22 11:05:00,
2013-03-22 07:10:00,25.9,23.1,29.75,WSW,246,5.8,5.8,89,0.00,,,0.00,WeatherDisplay:10.37,2013-03-22 11:10:00,
2013-03-22 07:15:00,26.0,23.2,29.75,WNW,285,3.5,3.5,89,0.00,,,0.00,WeatherDisplay:10.37,2013-03-22 11:15:00,
2013-03-22 07:20:00,26.0,23.2,29.75,West,264,3.5,3.5,89,0.00,,,0.00,WeatherDisplay:10.37,2013-03-22 11:20:00,
2013-03-22 07:25:00,26.1,23.3,29.75,West,265,3.5,3.5,89,0.00,,,0.00,WeatherDisplay:10.37,2013-03-22 11:25:00,
2013-03-22 07:30:00,26.2,23.1,29.75,SSW,200,5.8,5.8,88,0.00,,,0.00,WeatherDisplay:10.37,2013-03-22 11:30:00,
2013-03-22 07:35:00,26.3,23.2,29.76,WNW,283,2.3,2.3,88,0.00,,,0.00,WeatherDisplay:10.37,2013-03-22 11:35:00,
2013-03-22 07:40:00,26.4,23.3,29.76,NE,53,4.6,4.6,88,0.00,,,0.00,WeatherDisplay:10.37,2013-03-22 11:40:00,
2013-03-22 07:45:00,26.5,23.4,29.76,WSW,241,1.1,1.1,88,0.00,,,0.00,WeatherDisplay:10.37,2013-03-22 11:45:00,
2013-03-22 07:50:00,26.6,23.5,29.76,WNW,285,3.5,3.5,88,0.00,,,0.00,WeatherDisplay:10.37,2013-03-22 11:50:00,
2013-03-22 07:55:00,26.7,23.6,29.76,WNW,292,3.0,3.0,88,0.00,,,0.00,WeatherDisplay:10.37,2013-03-22 11:55:00,
2013-03-22 08:00:00,26.8,23.7,29.77,WNW,293,3.5,3.5,88,0.00,,,0.00,WeatherDisplay:10.37,2013-03-22 12:00:00,
2013-03-22 08:05:00,26.8,23.7,29.77,WSW,246,5.8,5.8,88,0.00,,,0.00,WeatherDisplay:10.37,2013-03-22 12:05:00,
2013-03-22 08:10:00,26.9,23.8,29.77,WSW,249,2.0,2.0,88,0.00,,,0.00,WeatherDisplay:10.37,2013-03-22 12:10:00,
2013-03-22 08:15:00,26.9,23.8,29.77,WNW,302,6.9,6.9,88,0.00,,,0.00,WeatherDisplay:10.37,2013-03-22 12:15:00,
2013-03-22 08:20:00,27.0,24.2,29.77,East,85,4.6,4.6,89,0.00,,,0.00,WeatherDisplay:10.37,2013-03-22 12:20:00,
2013-03-22 08:25:00,27.0,24.2,29.77,NNE,18,4.0,4.0,89,0.00,,,0.00,WeatherDisplay:10.37,2013-03-22 12:25:00,
2013-03-22 08:30:00,27.1,24.3,29.77,West,267,3.0,3.0,89,0.00,,,0.00,WeatherDisplay:10.37,2013-03-22 12:30:00,
2013-03-22 08:35:00,27.2,24.1,29.77,West,265,3.5,3.5,88,0.00,,,0.00,WeatherDisplay:10.37,2013-03-22 12:35:00,
2013-03-22 08:40:00,27.4,24.3,29.77,West,263,3.5,3.5,88,0.00,,,0.00,WeatherDisplay:10.37,2013-03-22 12:40:00,
2013-03-22 08:45:00,27.5,24.4,29.77,WNW,298,3.5,3.5,88,0.00,,,0.00,WeatherDisplay:10.37,2013-03-22 12:45:00,
2013-03-22 08:50:00,27.6,24.5,29.77,West,268,5.8,5.8,88,0.00,,,0.00,WeatherDisplay:10.37,2013-03-22 12:50:00,
2013-03-22 08:55:00,27.7,24.6,29.77,WSW,255,7.0,7.0,88,0.00,,,0.00,WeatherDisplay:10.37,2013-03-22 12:55:00,
2013-03-22 09:00:00,27.8,24.7,29.77,SW,226,4.0,4.0,88,0.00,,,0.00,WeatherDisplay:10.37,2013-03-22 13:00:00,
2013-03-22 09:05:00,27.8,24.7,29.77,WSW,253,3.5,3.5,88,0.00,,,0.00,WeatherDisplay:10.37,2013-03-22 13:05:00,
2013-03-22 09:10:00,27.8,25.0,29.77,WNW,288,2.0,2.0,89,0.00,,,0.00,WeatherDisplay:10.37,2013-03-22 13:10:00,
2013-03-22 09:15:00,27.7,25.2,29.77,WNW,291,2.3,2.3,90,0.00,,,0.00,WeatherDisplay:10.37,2013-03-22 13:15:00,
2013-03-22 09:20:00,27.7,25.2,29.77,North,4,1.1,1.1,90,0.00,,,0.00,WeatherDisplay:10.37,2013-03-22 13:20:00,
2013-03-22 09:25:00,27.8,25.2,29.77,WNW,291,3.5,3.5,90,0.00,,,0.00,WeatherDisplay:10.37,2013-03-22 13:25:00,
2013-03-22 09:30:00,27.9,25.3,29.78,West,260,3.5,3.5,90,0.00,,,0.00,WeatherDisplay:10.37,2013-03-22 13:30:00,
2013-03-22 09:35:00,28.0,25.4,29.78,West,278,4.6,4.6,90,0.00,,,0.00,WeatherDisplay:10.37,2013-03-22 13:35:00,
2013-03-22 09:40:00,28.0,25.4,29.78,North,3,5.8,5.8,90,0.00,,,0.00,WeatherDisplay:10.37,2013-03-22 13:40:00,
2013-03-22 09:45:00,28.1,25.8,29.78,WSW,252,6.9,6.9,91,0.00,,,0.00,WeatherDisplay:10.37,2013-03-22 13:45:00,
2013-03-22 09:50:00,28.1,25.5,29.78,West,267,3.5,3.5,90,0.00,,,0.00,WeatherDisplay:10.37,2013-03-22 13:50:00,
2013-03-22 09:55:00,28.1,25.8,29.78,NE,42,3.5,3.5,91,0.00,,,0.00,WeatherDisplay:10.37,2013-03-22 13:55:00,
2013-03-22 10:00:00,28.2,25.9,29.79,West,267,2.3,2.3,91,0.00,,,0.00,WeatherDisplay:10.37,2013-03-22 14:00:00,
2013-03-22 10:05:00,28.1,25.8,29.79,NW,316,3.5,3.5,91,0.00,,,0.00,WeatherDisplay:10.37,2013-03-22 14:05:00,
2013-03-22 10:10:00,28.0,25.7,29.79,WNW,283,3.5,3.5,91,0.00,,,0.00,WeatherDisplay:10.37,2013-03-22 14:10:00,
2013-03-22 10:15:00,28.1,25.8,29.79,West,269,2.0,2.0,91,0.00,,,0.00,WeatherDisplay:10.37,2013-03-22 14:15:00,
2013-03-22 10:20:00,28.2,25.9,29.79,WNW,288,6.9,6.9,91,0.00,,,0.00,WeatherDisplay:10.37,2013-03-22 14:20:00,
2013-03-22 10:25:00,28.2,25.9,29.79,WNW,295,4.6,4.6,91,0.00,,,0.00,WeatherDisplay:10.37,2013-03-22 14:25:00,
2013-03-22 10:30:00,28.3,25.7,29.79,West,268,3.5,3.5,90,0.00,,,0.00,WeatherDisplay:10.37,2013-03-22 14:30:00,
2013-03-22 10:35:00,28.4,25.6,29.80,West,265,6.0,6.0,89,0.00,,,0.00,WeatherDisplay:10.37,2013-03-22 14:35:00,
2013-03-22 10:40:00,28.6,25.5,29.80,West,269,5.8,5.8,88,0.00,,,0.00,WeatherDisplay:10.37,2013-03-22 14:40:00,
2013-03-22 10:45:00,28.7,25.0,29.80,WSW,240,7.0,7.0,86,0.00,,,0.00,WeatherDisplay:10.37,2013-03-22 14:45:00,
2013-03-22 10:50:00,28.4,24.7,29.80,West,262,11.5,11.5,86,0.00,,,0.00,WeatherDisplay:10.37,2013-03-22 14:50:00,
2013-03-22 10:55:00,28.1,24.7,29.80,WNW,284,11.5,11.5,87,0.00,,,0.00,WeatherDisplay:10.37,2013-03-22 14:55:00,
2013-03-22 11:00:00,28.2,24.8,29.81,WNW,300,8.1,8.1,87,0.00,,,0.00,WeatherDisplay:10.37,2013-03-22 15:00:00,
2013-03-22 11:05:00,28.2,24.8,29.81,NE,49,10.4,10.4,87,0.00,CLR,,0.00,WeatherDisplay:10.37,2013-03-22 15:05:00,
2013-03-22 11:10:00,28.3,25.2,29.81,NW,311,6.9,6.9,88,0.00,CLR,,0.00,WeatherDisplay:10.37,2013-03-22 15:10:00,
2013-03-22 11:16:00,28.3,24.9,29.81,WNW,287,10.4,10.4,87,0.00,CLR,,0.00,WeatherDisplay:10.37,2013-03-22 15:16:00,
2013-03-22 11:21:00,28.5,25.1,29.82,WSW,238,6.9,6.9,87,0.00,CLR,,0.00,WeatherDisplay:10.37,2013-03-22 15:21:00,
2013-03-22 11:26:00,28.8,25.4,29.82,WNW,302,4.0,4.0,87,0.00,CLR,,0.00,WeatherDisplay:10.37,2013-03-22 15:26:00,
2013-03-22 11:31:00,28.3,23.8,29.82,West,278,11.5,11.5,83,0.00,CLR,,0.00,WeatherDisplay:10.37,2013-03-22 15:31:00,
2013-03-22 11:36:00,28.3,23.5,29.82,NW,308,10.4,10.4,82,0.00,CLR,,0.00,WeatherDisplay:10.37,2013-03-22 15:36:00,
2013-03-22 11:42:00,28.1,23.0,29.82,NW,325,13.8,13.8,81,0.00,CLR,,0.00,WeatherDisplay:10.37,2013-03-22 15:42:00,
2013-03-22 11:47:00,28.2,23.4,29.82,WSW,252,8.1,8.1,82,0.00,CLR,,0.00,WeatherDisplay:10.37,2013-03-22 15:47:00,
2013-03-22 11:52:00,28.4,23.3,29.81,West,277,12.7,12.7,81,0.00,CLR,,0.00,WeatherDisplay:10.37,2013-03-22 15:52:00,
2013-03-22 11:57:00,28.6,23.5,29.82,WNW,290,10.4,10.4,81,0.00,CLR,,0.00,WeatherDisplay:10.37,2013-03-22 15:57:00,
2013-03-22 12:02:00,28.6,23.5,29.82,WNW,285,9.2,9.2,81,0.00,CLR,,0.00,WeatherDisplay:10.37,2013-03-22 16:02:00,
2013-03-22 12:07:00,28.9,23.2,29.82,WNW,298,18.4,18.4,79,0.00,CLR,,0.00,WeatherDisplay:10.37,2013-03-22 16:07:00,
2013-03-22 12:12:00,29.2,23.8,29.82,WNW,282,8.1,8.1,80,0.00,CLR,,0.00,WeatherDisplay:10.37,2013-03-22 16:12:00,
2013-03-22 12:17:00,29.2,23.2,29.82,WNW,300,6.9,6.9,78,0.00,CLR,,0.00,WeatherDisplay:10.37,2013-03-22 16:17:00,
2013-03-22 12:22:00,29.2,23.2,29.82,WNW,283,8.1,8.1,78,0.00,CLR,,0.00,WeatherDisplay:10.37,2013-03-22 16:22:00,
2013-03-22 12:27:00,29.2,22.9,29.82,NNE,30,11.5,11.5,77,0.00,CLR,,0.00,WeatherDisplay:10.37,2013-03-22 16:27:00,
2013-03-22 12:32:00,29.1,23.1,29.82,West,275,5.0,5.0,78,0.00,CLR,,0.00,WeatherDisplay:10.37,2013-03-22 16:32:00,
2013-03-22 12:37:00,29.1,22.5,29.83,West,265,6.0,6.0,76,0.00,CLR,,0.00,WeatherDisplay:10.37,2013-03-22 16:37:00,
2013-03-22 12:42:00,29.3,22.7,29.83,West,269,7.0,7.0,76,0.00,CLR,,0.00,WeatherDisplay:10.37,2013-03-22 16:42:00,
2013-03-22 12:47:00,29.3,22.7,29.83,WNW,297,6.9,6.9,76,0.00,CLR,,0.00,WeatherDisplay:10.37,2013-03-22 16:47:00,
2013-03-22 12:52:00,29.5,22.9,29.83,WSW,253,4.0,4.0,76,0.00,CLR,,0.00,WeatherDisplay:10.37,2013-03-22 16:52:00,
2013-03-22 12:57:00,29.7,23.1,29.83,WNW,285,9.2,9.2,76,0.00,CLR,,0.00,WeatherDisplay:10.37,2013-03-22 16:57:00,
2013-03-22 13:02:00,29.7,23.4,29.82,West,265,4.6,4.6,77,0.00,CLR,,0.00,WeatherDisplay:10.37,2013-03-22 17:02:00,
2013-03-22 13:07:00,29.9,23.9,29.83,West,271,5.0,5.0,78,0.00,CLR,,0.00,WeatherDisplay:10.37,2013-03-22 17:07:00,
2013-03-22 13:12:00,30.3,24.6,29.83,WNW,287,3.5,3.5,79,0.00,CLR,,0.00,WeatherDisplay:10.37,2013-03-22 17:12:00,
2013-03-22 13:17:00,30.1,24.4,29.83,WNW,288,6.9,6.9,79,0.00,CLR,,0.00,WeatherDisplay:10.37,2013-03-22 17:17:00,
2013-03-22 13:22:00,30.1,25.0,29.83,West,268,5.8,5.8,81,0.00,CLR,,0.00,WeatherDisplay:10.37,2013-03-22 17:22:00,
2013-03-22 13:27:00,30.2,24.8,29.83,WSW,243,4.6,4.6,80,0.00,CLR,,0.00,WeatherDisplay:10.37,2013-03-22 17:27:00,
2013-03-22 13:32:00,30.3,24.6,29.83,WNW,295,8.1,8.1,79,0.00,CLR,,0.00,WeatherDisplay:10.37,2013-03-22 17:32:00,
2013-03-22 13:37:00,30.4,24.7,29.83,WSW,241,8.1,8.1,79,0.00,CLR,,0.00,WeatherDisplay:10.37,2013-03-22 17:37:00,
2013-03-22 13:42:00,30.7,25.0,29.83,NW,314,8.1,8.1,79,0.00,CLR,,0.00,WeatherDisplay:10.37,2013-03-22 17:42:00,
2013-03-22 13:47:00,30.6,24.2,29.83,NW,310,10.4,10.4,77,0.00,CLR,,0.00,WeatherDisplay:10.37,2013-03-22 17:47:00,
2013-03-22 13:52:00,30.5,24.8,29.83,WSW,239,3.5,3.5,79,0.00,CLR,,0.00,WeatherDisplay:10.37,2013-03-22 17:52:00,
2013-03-22 13:57:00,30.7,24.3,29.83,West,274,5.0,5.0,77,0.00,CLR,,0.00,WeatherDisplay:10.37,2013-03-22 17:57:00,
2013-03-22 14:02:00,30.7,24.3,29.83,NE,43,9.2,9.2,77,0.00,CLR,,0.00,WeatherDisplay:10.37,2013-03-22 18:02:00,
2013-03-22 14:07:00,30.7,24.7,29.83,WNW,297,5.0,5.0,78,0.00,CLR,,0.00,WeatherDisplay:10.37,2013-03-22 18:07:00,
2013-03-22 14:12:00,30.9,24.8,29.83,NNE,20,6.9,6.9,78,0.00,CLR,,0.00,WeatherDisplay:10.37,2013-03-22 18:12:00,
2013-03-22 14:17:00,30.9,24.8,29.83,WNW,285,6.0,6.0,78,0.00,CLR,,0.00,WeatherDisplay:10.37,2013-03-22 18:17:00,
2013-03-22 14:22:00,30.8,24.4,29.83,West,276,11.5,11.5,77,0.00,CLR,,0.00,WeatherDisplay:10.37,2013-03-22 18:22:00,
2013-03-22 14:27:00,30.6,24.2,29.82,WSW,256,4.6,4.6,77,0.00,CLR,,0.00,WeatherDisplay:10.37,2013-03-22 18:27:00,
2013-03-22 14:32:00,30.4,24.1,29.83,NNW,339,5.8,5.8,77,0.00,CLR,,0.00,WeatherDisplay:10.37,2013-03-22 18:32:00,
2013-03-22 14:37:00,30.4,24.1,29.83,WNW,297,9.2,9.2,77,0.00,CLR,,0.00,WeatherDisplay:10.37,2013-03-22 18:37:00,
2013-03-22 14:42:00,30.6,24.2,29.83,West,276,8.1,8.1,77,0.00,CLR,,0.00,WeatherDisplay:10.37,2013-03-22 18:42:00,
2013-03-22 14:47:00,30.8,24.4,29.83,West,269,3.5,3.5,77,0.00,CLR,,0.00,WeatherDisplay:10.37,2013-03-22 18:47:00,
2013-03-22 14:52:00,30.9,24.2,29.82,WNW,290,6.9,6.9,76,0.00,CLR,,0.00,WeatherDisplay:10.37,2013-03-22 18:52:00,
2013-03-22 14:58:00,30.9,24.5,29.83,WSW,249,5.8,5.8,77,0.00,CLR,,0.00,WeatherDisplay:10.37,2013-03-22 18:58:00,
2013-03-22 15:03:00,31.0,24.6,29.83,West,262,2.3,3.2,77,0.00,CLR,,0.00,WeatherDisplay:10.37,2013-03-22 19:03:00,
2013-03-22 15:08:00,31.2,24.5,29.83,SSE,153,6.9,6.9,76,0.00,CLR,,0.00,WeatherDisplay:10.37,2013-03-22 19:08:00,
2013-03-22 15:13:00,31.3,24.6,29.83,NNE,22,5.8,5.8,76,0.00,CLR,,0.00,WeatherDisplay:10.37,2013-03-22 19:13:00,
2013-03-22 15:18:00,31.4,24.7,29.83,SW,227,11.5,11.5,76,0.00,CLR,,0.00,WeatherDisplay:10.37,2013-03-22 19:18:00,
2013-03-22 15:23:00,31.7,25.0,29.83,WNW,294,6.9,6.9,76,0.00,CLR,,0.00,WeatherDisplay:10.37,2013-03-22 19:23:00,
2013-03-22 15:28:00,31.7,24.7,29.83,NNE,33,4.0,4.0,75,0.00,CLR,,0.00,WeatherDisplay:10.37,2013-03-22 19:28:00,
2013-03-22 15:33:00,31.8,24.5,29.83,West,278,5.8,5.8,74,0.00,CLR,,0.00,WeatherDisplay:10.37,2013-03-22 19:33:00,
2013-03-22 15:38:00,32.1,24.7,29.82,WNW,283,12.7,12.7,74,0.00,CLR,,0.00,WeatherDisplay:10.37,2013-03-22 19:38:00,
2013-03-22 15:43:00,32.3,25.3,29.82,WSW,239,6.9,6.9,75,0.00,CLR,,0.00,WeatherDisplay:10.37,2013-03-22 19:43:00,
2013-03-22 15:48:00,32.4,24.7,29.83,WNW,293,8.1,8.1,73,0.00,CLR,,0.00,WeatherDisplay:10.37,2013-03-22 19:48:00,
2013-03-22 15:53:00,32.2,24.8,29.83,West,278,10.4,10.4,74,0.00,CLR,,0.00,WeatherDisplay:10.37,2013-03-22 19:53:00,
2013-03-22 15:58:00,32.4,25.0,29.83,WNW,293,5.8,5.8,74,0.01,RA,,0.01,WeatherDisplay:10.37,2013-03-22 19:58:00,
2013-03-22 16:03:00,32.4,25.4,29.83,NW,314,4.6,4.6,75,0.01,RA,,0.01,WeatherDisplay:10.37,2013-03-22 20:03:00,
2013-03-22 16:08:00,32.4,25.0,29.83,WNW,288,5.0,5.0,74,0.01,CLR,,0.01,WeatherDisplay:10.37,2013-03-22 20:08:00,
2013-03-22 16:13:00,32.5,25.5,29.83,West,264,3.5,3.5,75,0.01,CLR,,0.01,WeatherDisplay:10.37,2013-03-22 20:13:00,
2013-03-22 16:18:00,32.7,25.6,29.83,NE,54,1.1,1.1,75,0.01,CLR,,0.01,WeatherDisplay:10.37,2013-03-22 20:18:00,
2013-03-22 16:23:00,32.5,25.5,29.83,WNW,294,4.0,4.0,75,0.01,CLR,,0.01,WeatherDisplay:10.37,2013-03-22 20:23:00,
2013-03-22 16:28:00,32.4,25.0,29.83,West,281,4.6,4.6,74,0.01,CLR,,0.01,WeatherDisplay:10.37,2013-03-22 20:28:00,
2013-03-22 16:33:00,32.4,25.0,29.83,West,266,8.1,8.1,74,0.01,CLR,,0.01,WeatherDisplay:10.37,2013-03-22 20:33:00,
2013-03-22 16:38:00,32.4,25.4,29.83,WSW,255,3.5,3.5,75,0.01,CLR,,0.01,WeatherDisplay:10.37,2013-03-22 20:38:00,
2013-03-22 16:43:00,32.4,25.4,29.84,West,277,2.0,2.0,75,0.01,CLR,,0.01,WeatherDisplay:10.37,2013-03-22 20:43:00,
2013-03-22 16:48:00,32.4,25.7,29.84,West,262,2.3,2.3,76,0.01,CLR,,0.01,WeatherDisplay:10.37,2013-03-22 20:48:00,
2013-03-22 16:53:00,32.3,25.9,29.84,NW,321,4.0,4.0,77,0.01,CLR,,0.01,WeatherDisplay:10.37,2013-03-22 20:53:00,
2013-03-22 16:58:00,32.2,26.1,29.84,North,6,3.5,3.5,78,0.00,CLR,,0.01,WeatherDisplay:10.37,2013-03-22 20:58:00,
2013-03-22 17:03:00,32.1,26.0,29.84,West,280,6.9,6.9,78,0.00,CLR,,0.01,WeatherDisplay:10.37,2013-03-22 21:03:00,
2013-03-22 17:08:00,32.1,26.3,29.84,WSW,246,5.8,5.8,79,0.00,CLR,,0.01,WeatherDisplay:10.37,2013-03-22 21:08:00,
2013-03-22 17:13:00,32.1,26.3,29.84,NW,312,3.0,3.0,79,0.00,CLR,,0.01,WeatherDisplay:10.37,2013-03-22 21:13:00,
2013-03-22 17:18:00,32.2,26.7,29.84,WSW,248,2.3,2.3,80,0.00,CLR,,0.01,WeatherDisplay:10.37,2013-03-22 21:18:00,
2013-03-22 17:23:00,32.2,26.7,29.84,West,264,2.3,2.3,80,0.00,CLR,,0.01,WeatherDisplay:10.37,2013-03-22 21:23:00,
2013-03-22 17:28:00,32.2,26.4,29.84,NW,311,4.6,4.6,79,0.00,CLR,,0.01,WeatherDisplay:10.37,2013-03-22 21:28:00,
2013-03-22 17:33:00,32.2,26.4,29.84,West,276,4.6,4.6,79,0.00,CLR,,0.01,WeatherDisplay:10.37,2013-03-22 21:33:00,
2013-03-22 17:38:00,32.2,26.4,29.84,WSW,242,3.5,3.5,79,0.00,CLR,,0.01,WeatherDisplay:10.37,2013-03-22 21:38:00,
2013-03-22 17:43:00,32.1,26.6,29.85,WNW,288,5.8,5.8,80,0.00,CLR,,0.01,WeatherDisplay:10.37,2013-03-22 21:43:00,
2013-03-22 17:48:00,32.1,26.6,29.85,West,269,6.9,6.9,80,0.00,CLR,,0.01,WeatherDisplay:10.37,2013-03-22 21:48:00,
2013-03-22 17:53:00,32.1,26.6,29.85,WNW,295,5.8,5.8,80,0.00,CLR,,0.01,WeatherDisplay:10.37,2013-03-22 21:53:00,
2013-03-22 17:58:00,32.1,26.6,29.85,WSW,257,3.5,3.5,80,0.00,CLR,,0.01,WeatherDisplay:10.37,2013-03-22 21:58:00,
2013-03-22 18:03:00,32.1,26.6,29.85,North,9,5.8,5.8,80,0.00,CLR,,0.01,WeatherDisplay:10.37,2013-03-22 22:03:00,
2013-03-22 18:08:00,32.1,26.3,29.85,WNW,285,9.2,9.2,79,0.00,CLR,,0.01,WeatherDisplay:10.37,2013-03-22 22:08:00,
2013-03-22 18:13:00,32.1,26.3,29.86,West,269,5.8,5.8,79,0.00,CLR,,0.01,WeatherDisplay:10.37,2013-03-22 22:13:00,
2013-03-22 18:18:00,32.2,26.7,29.85,WSW,238,3.5,3.5,80,0.00,CLR,,0.01,WeatherDisplay:10.37,2013-03-22 22:18:00,
2013-03-22 18:24:00,32.3,26.8,29.86,NW,307,1.1,1.1,80,0.00,CLR,,0.01,WeatherDisplay:10.37,2013-03-22 22:24:00,
2013-03-22 18:29:00,32.1,26.6,29.86,West,280,11.5,11.5,80,0.00,CLR,,0.01,WeatherDisplay:10.37,2013-03-22 22:29:00,
2013-03-22 18:34:00,32.0,26.5,29.86,SW,228,8.1,8.1,80,0.00,CLR,,0.01,WeatherDisplay:10.37,2013-03-22 22:34:00,
2013-03-22 18:39:00,32.0,26.8,29.86,SE,141,6.9,6.9,81,0.00,CLR,,0.01,WeatherDisplay:10.37,2013-03-22 22:39:00,
2013-03-22 18:44:00,31.9,26.7,29.86,WSW,243,3.5,3.5,81,0.00,CLR,,0.01,WeatherDisplay:10.37,2013-03-22 22:44:00,
2013-03-22 18:49:00,31.8,26.6,29.87,SSW,203,3.5,3.5,81,0.00,CLR,,0.01,WeatherDisplay:10.37,2013-03-22 22:49:00,
2013-03-22 18:54:00,31.8,26.6,29.87,SE,139,8.1,8.1,81,0.00,CLR,,0.01,WeatherDisplay:10.37,2013-03-22 22:54:00,
2013-03-22 18:59:00,31.7,26.8,29.87,WNW,302,6.9,6.9,82,0.00,CLR,,0.01,WeatherDisplay:10.37,2013-03-22 22:59:00,
2013-03-22 19:04:00,31.7,26.8,29.87,WSW,256,3.5,3.5,82,0.00,CLR,,0.01,WeatherDisplay:10.37,2013-03-22 23:04:00,
2013-03-22 19:09:00,31.6,26.7,29.87,West,266,8.1,8.1,82,0.00,CLR,,0.01,WeatherDisplay:10.37,2013-03-22 23:09:00,
2013-03-22 19:14:00,31.6,26.4,29.87,NW,318,4.6,4.6,81,0.00,CLR,,0.01,WeatherDisplay:10.37,2013-03-22 23:14:00,
2013-03-22 19:19:00,31.7,26.5,29.87,WSW,253,5.0,5.0,81,0.00,CLR,,0.01,WeatherDisplay:10.37,2013-03-22 23:19:00,
2013-03-22 19:24:00,31.7,26.5,29.88,SW,222,10.4,10.4,81,0.00,CLR,,0.01,WeatherDisplay:10.37,2013-03-22 23:24:00,
2013-03-22 19:29:00,31.7,26.8,29.88,WNW,285,3.5,3.5,82,0.00,CLR,,0.01,WeatherDisplay:10.37,2013-03-22 23:29:00,
2013-03-22 19:34:00,31.7,26.8,29.88,NW,309,8.0,8.0,82,0.00,CLR,,0.01,WeatherDisplay:10.37,2013-03-22 23:34:00,
2013-03-22 19:39:00,31.7,26.5,29.88,West,270,4.0,4.0,81,0.00,CLR,,0.01,WeatherDisplay:10.37,2013-03-22 23:39:00,
2013-03-22 19:44:00,31.7,26.8,29.88,West,278,8.0,8.0,82,0.00,CLR,,0.01,WeatherDisplay:10.37,2013-03-22 23:44:00,
2013-03-22 19:49:00,31.7,26.8,29.88,SSE,163,2.3,0.0,82,0.00,CLR,,0.01,WeatherDisplay:10.37,2013-03-22 23:49:00,
2013-03-22 19:54:00,31.7,26.8,29.89,NW,323,6.9,6.9,82,0.00,,,0.01,WeatherDisplay:10.37,2013-03-22 23:54:00,
2013-03-22 19:59:00,31.7,26.8,29.89,West,264,1.1,1.1,82,0.00,,,0.01,WeatherDisplay:10.37,2013-03-22 23:59:00,
2013-03-22 20:04:00,31.7,26.8,29.89,NW,309,3.5,3.5,82,0.00,,,0.01,WeatherDisplay:10.37,2013-03-23 00:04:00,
2013-03-22 20:09:00,31.7,26.8,29.89,West,275,6.9,6.9,82,0.00,,,0.01,WeatherDisplay:10.37,2013-03-23 00:09:00,
2013-03-22 20:14:00,31.7,26.8,29.89,WNW,293,3.5,3.5,82,0.00,,,0.01,WeatherDisplay:10.37,2013-03-23 00:14:00,
2013-03-22 20:19:00,31.7,27.1,29.89,WSW,238,5.8,5.8,83,0.00,,,0.01,WeatherDisplay:10.37,2013-03-23 00:19:00,
2013-03-22 20:24:00,31.6,27.0,29.89,WNW,300,2.3,3.7,83,0.00,,,0.01,WeatherDisplay:10.37,2013-03-23 00:24:00,
2013-03-22 20:29:00,31.6,27.0,29.89,WSW,246,2.3,2.3,83,0.00,,,0.01,WeatherDisplay:10.37,2013-03-23 00:29:00,
2013-03-22 20:34:00,31.6,27.0,29.89,West,267,2.3,2.8,83,0.00,,,0.01,WeatherDisplay:10.37,2013-03-23 00:34:00,
2013-03-22 20:39:00,31.6,27.0,29.89,SW,229,3.5,3.5,83,0.00,,,0.01,WeatherDisplay:10.37,2013-03-23 00:39:00,
2013-03-22 20:44:00,31.6,27.0,29.89,West,273,6.9,6.9,83,0.00,,,0.01,WeatherDisplay:10.37,2013-03-23 00:44:00,
2013-03-22 20:49:00,31.5,26.9,29.90,SW,225,3.5,3.5,83,0.00,,,0.01,WeatherDisplay:10.37,2013-03-23 00:49:00,
2013-03-22 20:54:00,31.5,26.9,29.90,WNW,300,4.6,4.6,83,0.00,,,0.01,WeatherDisplay:10.37,2013-03-23 00:54:00,
2013-03-22 20:59:00,31.5,26.9,29.90,NW,323,3.5,3.5,83,0.00,,,0.01,WeatherDisplay:10.37,2013-03-23 00:59:00,
2013-03-22 21:04:00,31.5,26.6,29.90,WSW,257,10.4,10.4,82,0.00,,,0.01,WeatherDisplay:10.37,2013-03-23 01:04:00,
2013-03-22 21:09:00,31.5,26.6,29.90,WNW,290,5.8,5.8,82,0.00,,,0.01,WeatherDisplay:10.37,2013-03-23 01:09:00,
2013-03-22 21:14:00,31.5,26.6,29.90,WSW,242,3.5,3.5,82,0.00,,,0.01,WeatherDisplay:10.37,2013-03-23 01:14:00,
2013-03-22 21:19:00,31.5,26.9,29.90,West,268,4.6,4.6,83,0.00,,,0.01,WeatherDisplay:10.37,2013-03-23 01:19:00,
2013-03-22 21:24:00,31.4,26.5,29.90,NW,311,6.9,6.9,82,0.00,,,0.01,WeatherDisplay:10.37,2013-03-23 01:24:00,
2013-03-22 21:29:00,31.5,26.6,29.90,WSW,238,4.6,4.6,82,0.00,,,0.01,WeatherDisplay:10.37,2013-03-23 01:29:00,
2013-03-22 21:34:00,31.4,26.5,29.90,WSW,253,3.5,3.5,82,0.00,,,0.01,WeatherDisplay:10.37,2013-03-23 01:34:00,
2013-03-22 21:40:00,31.4,26.8,29.90,West,280,2.3,2.3,83,0.00,,,0.01,WeatherDisplay:10.37,2013-03-23 01:40:00,
2013-03-22 21:45:00,31.4,26.5,29.90,WSW,253,8.1,8.1,82,0.00,,,0.01,WeatherDisplay:10.37,2013-03-23 01:45:00,
2013-03-22 21:50:00,31.5,26.6,29.90,WSW,249,6.0,6.0,82,0.00,,,0.01,WeatherDisplay:10.37,2013-03-23 01:50:00,
2013-03-22 21:55:00,31.5,26.6,29.91,West,269,4.6,4.6,82,0.00,,,0.01,WeatherDisplay:10.37,2013-03-23 01:55:00,
2013-03-22 22:00:00,31.5,26.9,29.90,West,263,11.5,11.5,83,0.00,,,0.01,WeatherDisplay:10.37,2013-03-23 02:00:00,
2013-03-22 22:05:00,31.5,26.9,29.91,West,278,5.8,5.8,83,0.00,,,0.01,WeatherDisplay:10.37,2013-03-23 02:05:00,
2013-03-22 22:10:00,31.5,26.9,29.91,WNW,283,7.0,7.0,83,0.00,,,0.01,WeatherDisplay:10.37,2013-03-23 02:10:00,
2013-03-22 22:15:00,31.5,26.9,29.90,WNW,297,5.8,5.8,83,0.00,,,0.01,WeatherDisplay:10.37,2013-03-23 02:15:00,
2013-03-22 22:20:00,31.5,26.9,29.91,West,262,6.9,6.9,83,0.00,,,0.01,WeatherDisplay:10.37,2013-03-23 02:20:00,
2013-03-22 22:25:00,31.5,26.9,29.91,WSW,255,9.2,9.2,83,0.00,,,0.01,WeatherDisplay:10.37,2013-03-23 02:25:00,
2013-03-22 22:30:00,31.6,27.0,29.91,WSW,253,5.8,5.8,83,0.00,,,0.01,WeatherDisplay:10.37,2013-03-23 02:30:00,
2013-03-22 22:35:00,31.6,27.0,29.91,West,259,5.8,5.8,83,0.00,,,0.01,WeatherDisplay:10.37,2013-03-23 02:35:00,
2013-03-22 22:40:00,31.6,27.3,29.91,West,274,10.4,10.4,84,0.00,,,0.01,WeatherDisplay:10.37,2013-03-23 02:40:00,
2013-03-22 22:45:00,31.5,27.2,29.91,WNW,297,3.5,3.5,84,0.00,,,0.01,WeatherDisplay:10.37,2013-03-23 02:45:00,
2013-03-22 22:50:00,31.4,27.1,29.91,WNW,294,11.5,11.5,84,0.00,,,0.01,WeatherDisplay:10.37,2013-03-23 02:50:00,
2013-03-22 22:55:00,31.4,27.4,29.91,WNW,289,3.5,3.5,85,0.00,,,0.01,WeatherDisplay:10.37,2013-03-23 02:55:00,
2013-03-22 23:00:00,31.3,27.3,29.91,West,264,6.9,6.9,85,0.00,,,0.01,WeatherDisplay:10.37,2013-03-23 03:00:00,
2013-03-22 23:05:00,31.2,27.5,29.91,WNW,284,3.5,3.5,86,0.00,,,0.01,WeatherDisplay:10.37,2013-03-23 03:05:00,
2013-03-22 23:10:00,31.1,27.7,29.91,West,275,6.9,6.9,87,0.00,,,0.01,WeatherDisplay:10.37,2013-03-23 03:10:00,
2013-03-22 23:15:00,31.1,27.7,29.91,West,278,2.3,2.3,87,0.00,,,0.01,WeatherDisplay:10.37,2013-03-23 03:15:00,
2013-03-22 23:20:00,31.1,27.7,29.91,WNW,295,8.1,8.1,87,0.00,,,0.01,WeatherDisplay:10.37,2013-03-23 03:20:00,
2013-03-22 23:25:00,31.0,27.6,29.91,WNW,282,2.3,2.3,87,0.00,,,0.01,WeatherDisplay:10.37,2013-03-23 03:25:00,
2013-03-22 23:30:00,30.9,27.8,29.91,WNW,289,3.5,3.5,88,0.00,,,0.01,WeatherDisplay:10.37,2013-03-23 03:30:00,
2013-03-22 23:35:00,30.9,27.8,29.91,WNW,284,1.1,1.1,88,0.00,,,0.01,WeatherDisplay:10.37,2013-03-23 03:35:00,
2013-03-22 23:40:00,30.8,27.7,29.91,WNW,290,3.5,3.5,88,0.00,,,0.01,WeatherDisplay:10.37,2013-03-23 03:40:00,
2013-03-22 23:45:00,30.8,27.7,29.91,North,10,2.3,2.3,88,0.00,,,0.01,WeatherDisplay:10.37,2013-03-23 03:45:00,
2013-03-22 23:50:00,30.9,27.5,29.91,West,275,9.2,9.2,87,0.00,,,0.01,WeatherDisplay:10.37,2013-03-23 03:50:00,
2013-03-22 23:55:00,31.0,27.3,29.91,West,275,6.9,6.9,86,0.00,,,0.01,WeatherDisplay:10.37,2013-03-23 03:55:00,